Hourly Weather Roundup
Issued by NWS Central Illinois

Home | Current Version | Previous Version | Text Only | Print | Product List | Glossary On
Versions: 1 2 3 4 5 6 7 8 9 10 11 12 13 14 15 16 17 18 19 20 21 22 23 24 25 26 27 28 29 30 31 32 33 34 35 36 37 38 39 40 41 42 43 44 45 46 47 48 49 50
000
NZUS43 KILX 040710
HWRILX

AREA WEATHER ROUNDUP
NATIONAL WEATHER SERVICE, LINCOLN IL
200 AM CDT TUE AUG 04 2015


CITY           SKY/WX    TMP DP  RH WIND       PRES   REMARKS
BLOOMINGTON    CLEAR     67  58  72 W3        29.96F
CHAMPAIGN      CLEAR     62  59  90 N5        29.94F
DANVILLE       CLEAR     58  57  98 CALM      29.92F
DECATUR        CLEAR     64  60  87 S3        29.94F
EFFINGHAM      MOCLDY    73  60  65 CALM      29.96S
FLORA          CLEAR     70  67  88 N3        29.94S
GALESBURG      CLEAR     58  57  97 CALM      29.96S
JACKSONVILLE   PTCLDY    68  64  87 CALM      29.95S
LACON          CLEAR     60  58  92 CALM      29.94S
LAWRENCEVILLE  PTCLDY    72  65  78 MISG      29.94S
LITCHFIELD     MOCLDY    72  64  75 NE5       29.95S
$$


CITY           SKY/WX    TMP DP  RH WIND       PRES   REMARKS
LINCOLN        CLEAR     64  60  88 CALM      29.95S
MACOMB         PTCLDY    60  59  96 CALM      29.98F
MATTOON        CLEAR     66  59  78 N3        29.94S
MT CARMEL AP   MOCLDY    70  66  88 CALM      29.94S
OLNEY-NOBLE AP MOCLDY    70  64  83 N3        29.94F
PARIS          CLEAR     60  59  97 CALM      29.96S
PEORIA         CLEAR     67  58  72 CALM      29.95F
PONTIAC        CLEAR     62  59  88 W3        29.95S
RANTOUL        CLEAR     62  60  92 NW3       29.94F
ROBINSON       MOCLDY    69  66  89 NE3       29.95S
SPRINGFIELD    PTCLDY    66  60  81 CALM      29.95S
TAYLORVILLE    MOCLDY    64  63  94 CALM      29.95S
$$

...REGIONAL REPORTS...


CITY           SKY/WX    TMP DP  RH WIND       PRES   REMARKS
CHICAGO O`HARE CLEAR     65  56  72 W6        29.91S
KANKAKEE       CLEAR     60  57  88 CALM      29.94S
MOLINE         CLEAR     61  56  83 S3        29.95S
MOUNT STERLING NOT AVBL
MOUNT VERNON   PTCLDY    70  64  83 CALM      29.94F
PITTSFIELD     PTCLDY    71  65  81 CALM      29.96S
QUINCY         MOCLDY    67  61  81 NE6       29.96S
ROCKFORD       CLEAR     61  55  81 CALM      29.94F
$$


CITY           SKY/WX    TMP DP  RH WIND       PRES   REMARKS
BURLINGTON     CLEAR     62  60  93 N3        29.96S
CEDAR RAPIDS   CLEAR     61  59  93 W3        29.95F
DES MOINES     PTCLDY    69  59  70 CALM      29.97S
KIRKSVILLE     MOCLDY    68  62  81 CALM      29.99R
OTTUMWA        CLEAR     60  59  96 CALM      29.95F
ST LOUIS       MOCLDY    79  65  62 NE5       29.95S HX  81
$$


CITY           SKY/WX    TMP DP  RH WIND       PRES   REMARKS
TERRE HAUTE    CLEAR     64  62  93 CALM      29.94F
EVANSVILLE     CLEAR     75  69  81 CALM      29.93F
INDIANAPOLIS   PTCLDY    66  58  75 N3        29.93S
LAFAYETTE      CLEAR     58  57  97 CALM      29.93F
MADISON        CLEAR     60  52  74 CALM      29.91F
MILWAUKEE      CLEAR     68  51  54 W3        29.90S
$$





USA.gov is the U.S. government's official web portal to all federal, state and local government web resources and services.